Preview of NWS' New Version of Forecast
This preview is not operational and should not be used for support decisions.

Regional Weather Roundup (RWR)

Issued by National Weather Service (NWS)

                            
000
ASUS42 KTBW 190316
RWRFL 
FLORIDA REGIONAL WEATHER ROUNDUP
NATIONAL WEATHER SERVICE TAMPA BAY RUSKIN FL
1100 PM EDT SAT MAY 18 2019

NOTE: "FAIR" INDICATES FEW OR NO CLOUDS BELOW 12,000 FEET WITH NO
SIGNIFICANT WEATHER AND/OR OBSTRUCTIONS TO VISIBILITY.

FLZ001>010-012>015-112-114-115-190400-
PANHANDLE FLORIDA
  
CITY           SKY/WX    TMP DP  RH WIND       PRES   REMARKS
PENSACOLA      FAIR      77  72  84 S8        29.97R                  
PENSACOLA NAS  FAIR      77  73  87 S13       29.97R                  
MILTON NAS     FAIR      70  68  93 SE5       29.98R                  
CRESTVIEW      FAIR      68  65  90 CALM      30.01R                  
DUKE FIELD     FAIR      68  68 100 CALM      29.99R                  
VALPARAISO     FAIR      76  70  82 CALM      29.99R                  
MARY ESTHER    CLEAR     76  69  78 SE3       29.97R                  
PANAMA CITY    FAIR      71  68  90 CALM      29.99R                  
TYNDALL AFB    FAIR      73  69  87 SE3       29.99R                  
APALACHICOLA   FAIR      73  67  81 S3        29.98F                  

STATION/POSITION SKY/WX   TEMP    WIND        PRES    WAVE   SWELL
                          AIR SEA DIR/SP/G            HT/PER HT/PER
                          (F)     (DEG/KT/KT) (MB)    (FT/S) (FT/S)
30.1N   87.6W                                   N/A     3/ 5
29.2N   88.2W                     130/ 14/ 17 1014.3R   4/ 6
PANAMA CITY BEAC                  180/  6/  6 1015.8R
TOWER C          NOT AVBL

$$
FLZ011-016>038-118-127-128-134-139-239-190400-
NORTH FLORIDA
  
CITY           SKY/WX    TMP DP  RH WIND       PRES   REMARKS
MARIANNA       FAIR      77  61  57 SW6       29.99R                  
TALLAHASSEE    FAIR      76  68  76 CALM      29.99R                  
PERRY          FAIR      72  71  97 SE3       30.02R FOG              
LIVE OAK       PTCLDY    73  66  78 CALM      30.02R                  
CROSS CITY     FAIR      72  70  94 E3        30.02R                  
GAINESVILLE    FAIR      74  60  61 E7        30.05R                  
WILLISTON      FAIR      70  60  72 CALM      30.03R                  
PALATKA        FAIR     N/A N/A N/A SE7       30.04R                  
MAYPORT NAS    FAIR      76  62  62 SE7       30.05R                  
JACKSONVILLE   FAIR      72  65  78 SE6       30.04R                  
JAX NAS        FAIR      77  64  64 SE8       30.05R                  
JAX CECIL      NOT AVBL                                               
FERNANDINA BEA FAIR      75  65  70 SE8       30.05R                  
ST AUGUSTINE   FAIR      74  64  71 SE9       30.06                   
PALM COAST     FAIR      70  62  78 SE3       30.04R                  

STATION/POSITION SKY/WX   TEMP    WIND        PRES    WAVE   SWELL
                          AIR SEA DIR/SP/G            HT/PER HT/PER
                          (F)     (DEG/KT/KT) (MB)    (FT/S) (FT/S)
SHELL POINT      NOT AVBL
KEATON BEACH               79     260/  4/  5 1016.4R
CEDAR KEY                  76      40/  4/  5 1016.7R
FERNANDINA                        140/  5/  8 1018.1R
30.7N   81.3W                 78                N/A     2/ 4   2/15
MAYPORT                           160/  3/  6 1017.8R
31.4N   80.9W              76 76  170/ 14/ 16 1017.3R   2/ 4   2/15
ST AUGUSTINE               77 81  150/ 14/ 15 1017.6R

$$
FLZ040-043>046-052-053-057-058-063-144-190400-
INTERIOR CENTRAL FLORIDA
  
CITY           SKY/WX    TMP DP  RH WIND       PRES   REMARKS
OCALA          FAIR      73  57  57 E5        30.04R                  
LEESBURG       FAIR      74  62  66 SE10      30.04R                  
SANFORD        FAIR      70  64  81 SE8       30.04R                  
ORLANDO EXEC   FAIR      72  63  73 SE8       30.04R                  
ORLANDO INTL   FAIR      72  63  73 SE8       30.05R                  
KISSIMMEE      FAIR      73  65  75 SE7       30.06R                  
WINTER HAVEN   FAIR      74  63  68 E10       30.05R                  
BARTOW         FAIR      72  63  73 E5        30.04R                  
SEBRING        FAIR      71  64  78 E6        30.04S                  
OKEECHOBEE     FAIR      68  64  88 CALM      30.03S                  

$$
FLZ041-047-054-059-064-141-147-190400-
EAST CENTRAL FLORIDA
  
CITY           SKY/WX    TMP DP  RH WIND       PRES   REMARKS
DAYTONA BEACH  FAIR      72  65  78 CALM      30.04R                  
DELAND         FAIR      70  63  78 SE5       30.03R                  
JFK SPACE CTR  FAIR      67  63  89 CALM      30.03S                  
CAPE CANAVERAL FAIR      71  60  70 E3        30.03R                  
PATRICK AFB    FAIR      76  67  72 SE12      30.03S                  
MELBOURNE      FAIR      78  65  63 E8        30.03S                  
VERO BEACH     FAIR      75  65  70 E6        30.04R                  
FT PIERCE      FAIR      71  64  78 CALM      30.04R                  
STUART         FAIR      75  64  69 E3        30.05S                  

STATION/POSITION SKY/WX   TEMP    WIND        PRES    WAVE   SWELL
                          AIR SEA DIR/SP/G            HT/PER HT/PER
                          (F)     (DEG/KT/KT) (MB)    (FT/S) (FT/S)
28.5N   80.2W              78     120/ 10/ 12 1017.5
28.9N   78.5W              78 78  110/ 14/ 17 1018.4R   4/ 7   2/ 7
TRIDENT PIER               75 81  100/  5/  7 1018.4R
28.4N   80.5W                 79                N/A     2/15   2/15
27.5N   80.2W                 79                N/A     2/14   2/14

$$
FLZ050-056-061-142-242-148-248-149-249-151-251-155-255-
160-260-190400-
WEST CENTRAL FLORIDA
  
CITY           SKY/WX    TMP DP  RH WIND       PRES   REMARKS
CRYSTAL RIVER  FAIR      68  61  77 CALM      30.02R                  
INVERNESS      FAIR      68  61  77 CALM      30.03R                  
BROOKSVILLE    FAIR      72  56  57 E7        30.03R                  
CLEARWATER AIR FAIR      77  55  47 SE10      30.01R                  
ST PETE CLEARW FAIR      78  61  55 E17       30.01R                  
TAMPA INTL     FAIR      80  59  48 E15G21    30.02R                  
TAMPA EXEC     FAIR      73  61  64 E6        30.04R                  
PLANT CITY     FAIR      75  61  60 E7        30.05R                  
MACDILL AFB    FAIR      77  62  59 SE12      30.02R                  
PETER O KNIGHT CLOUDY    79  63  57 E12       30.03R                  
ST PETERSBURG  FAIR      80  65  59 E22       30.01R                  
SARASOTA       FAIR      79  61  53 E12       30.00R                  
VENICE         FAIR      79  66  65 E9        30.01R                  

STATION/POSITION SKY/WX   TEMP    WIND        PRES    WAVE   SWELL
                          AIR SEA DIR/SP/G            HT/PER HT/PER
                          (F)     (DEG/KT/KT) (MB)    (FT/S) (FT/S)
27.3N   84.2W                 78                N/A     2/ 5
CLEARWATER BEACH                   80/  5/  7 1016.3R
MIDDLE TAMPA BAY                  110/ 17/ 19 1016.3R
VENICE                     78 81  110/  8/ 11 1016.1R

$$
FLZ066-069-070-075>078-162-262-165-265-190400-
SOUTHWEST FLORIDA AND KEYS
  
CITY           SKY/WX    TMP DP  RH WIND       PRES   REMARKS
PUNTA GORDA    FAIR      76  67  73 E9        30.03R                  
FT MYERS       FAIR      76  68  76 SE6       30.00R                  
SOUTHWEST INTL FAIR      76  67  73 E5        30.01R                  
NAPLES         FAIR      74  64  71 E6        30.00R                  
MARCO ISLAND   MOCLDY    74  65  73 E3        30.02R                  
IMMOKALEE      FAIR      73  68  83 SE7       30.00S                  
MARATHON       FAIR      83  72  69 E8        29.99R                  
KEY WEST NAS   FAIR      82  71  69 E12       29.98S                  
KEY WEST INTL  FAIR      81  72  74 E12       29.99S                  

STATION/POSITION SKY/WX   TEMP    WIND        PRES    WAVE   SWELL
                          AIR SEA DIR/SP/G            HT/PER HT/PER
                          (F)     (DEG/KT/KT) (MB)    (FT/S) (FT/S)
NAPLES                                        1016.0R
DRY TORTUGAS               81     110/  8/  9 1015.4R
SAND KEY                   81                 1015.4R
SOMBRERO KEY               81                 1014.9R

$$
FLZ067-068-071>074-168-172>174-190400-
SOUTHEAST FLORIDA 
  
CITY           SKY/WX    TMP DP  RH WIND       PRES   REMARKS
W PALM BEACH   FAIR      79  67  66 E9        30.02S                  
BOCA RATON     PTCLDY    79  70  73 E9        30.01S                  
FT LAUDER-EXEC FAIR      79  69  71 E9        30.01R                  
FT LAUDERDALE  FAIR      79  69  71 E10       30.01R                  
POMPANO BEACH  FAIR      80  68  66 E10       30.01S                  
PEMBROKE PINES FAIR      77  68  73 E7        30.02S                  
OPA LOCKA      FAIR      79  69  71 E8        30.01R                  
MIAMI          CLOUDY    81  69  67 E8        30.01R                  
WEST KENDALL   FAIR      80  71  74 E9        30.01R                  
HOMESTEAD      FAIR      80  71  75 E7        30.00S                  

STATION/POSITION SKY/WX   TEMP    WIND        PRES    WAVE   SWELL
                          AIR SEA DIR/SP/G            HT/PER HT/PER
                          (F)     (DEG/KT/KT) (MB)    (FT/S) (FT/S)
VIRGINIA KEY                       60/  9/ 12 1015.7R
LAKE WORTH                 79 82              1017.6R

$$